EW4908 Weather Reports


Display with metric or nautical units.
time (UTC)temp
F
wind
direction
speed
MPH
gust
MPH
rain 1hr
in
rain 24hr
in
rain mn
in
humidity
%
barometer
mb
20260505093010 55 105 12.0 16.0 0.00 0.00 0.00 65 1014.3
20260505091607 54 140 9.0 12.0 0.00 0.00 0.00 65 1014.3
20260505090023 55 117 8.0 11.0 0.00 0.00 0.00 63 1014.2
20260505084541 55 113 8.0 11.0 0.00 0.00 0.00 63 1014.0
20260505083036 54 120 7.0 9.0 0.00 0.00 0.00 65 1014.0
20260505081508 55 113 8.0 12.0 0.00 0.00 0.00 63 1013.8
20260505080002 56 126 9.0 12.0 0.00 0.00 0.00 61 1013.7
20260505074530 58 123 11.0 15.0 0.00 0.00 0.00 57 1013.6
20260505073045 58 105 10.0 13.0 0.00 0.00 0.00 57 1013.5
20260505071602 57 96 10.0 13.0 0.00 0.00 0.00 58 1013.3
20260505070103 59 94 10.0 14.0 0.00 0.00 0.00 55 1013.3
20260505064538 60 88 10.0 14.0 0.00 0.00 0.00 53 1013.1
20260505063029 61 103 10.0 12.0 0.00 0.00 0.00 52 1013.0
20260505061559 61 110 7.0 10.0 0.00 0.00 0.00 55 1012.9
20260505054537 62 80 9.0 11.0 0.00 0.00 0.00 54 1012.9
20260505051621 61 120 5.0 7.0 0.00 0.00 0.00 58 1012.7
20260505041559 65 128 5.0 6.0 0.00 0.00 0.00 51 1012.2
20260505041554 65 127 5.0 6.0 0.00 0.00 0.00 51 1012.2
20260505040014 68 122 4.0 5.0 0.00 0.00 0.00 45 1012.0
20260505034512 69 126 3.0 7.0 0.00 0.00 0.00 42 1011.8
20260505033041 69 138 2.0 4.0 0.00 0.00 0.00 42 1011.6
20260505031551 70 144 3.0 5.0 0.00 0.00 0.00 44 1011.4
20260505030032 72 141 4.0 7.0 0.00 0.00 0.00 44 1011.1
20260505024538 73 139 4.0 6.0 0.00 0.00 0.00 41 1011.0
20260505023020 74 184 5.0 6.0 0.00 0.00 0.00 39 1010.9
20260505021520 74 195 5.0 7.0 0.00 0.00 0.00 40 1010.9
20260505020030 75 190 5.0 7.0 0.00 0.00 0.00 37 1010.9
20260505014527 75 159 5.0 8.0 0.00 0.00 0.00 36 1010.9
20260505013002 74 151 5.0 8.0 0.00 0.00 0.00 41 1010.9
20260505011601 75 131 6.0 11.0 0.00 0.00 0.00 40 1011.0
20260505004554 76 78 9.0 14.0 0.00 0.00 0.00 41 1011.2
20260505003017 77 128 6.0 10.0 0.00 0.00 0.00 35 1011.2
20260505001515 76 80 7.0 10.0 0.00 0.00 0.00 37 1011.3
20260505000039 77 55 5.0 13.0 0.00 0.00 0.00 40 1011.2
20260504234526 77 67 4.0 11.0 0.00 0.00 0.00 36 1011.3
20260504233013 78 132 2.0 8.0 0.00 0.00 0.00 35 1011.2
20260504230104 79 248 4.0 9.0 0.00 0.00 0.00 33 1011.4
20260504224547 77 159 6.0 10.0 0.00 0.00 0.00 39 1011.5
20260504223025 76 137 5.0 10.0 0.00 0.00 0.00 41 1011.7
20260504221523 78 126 2.0 9.0 0.00 0.00 0.00 39 1011.8
20260504220021 77 185 3.0 7.0 0.00 0.00 0.00 41 1011.9
20260504214519 77 101 5.0 8.0 0.00 0.00 0.00 44 1012.0
20260504213119 78 49 2.0 8.0 0.00 0.00 0.00 38 1012.2
20260504211552 77 123 4.0 7.0 0.00 0.00 0.00 38 1012.4
20260504210044 76 121 5.0 13.0 0.00 0.00 0.00 36 1012.6
20260504204508 77 163 3.0 6.0 0.00 0.00 0.00 35 1012.7
20260504203008 77 259 1.0 7.0 0.00 0.00 0.00 40 1012.8
20260504201602 78 277 1.0 7.0 0.00 0.00 0.00 45 1012.9
20260504200029 77 258 5.0 7.0 0.00 0.00 0.00 39 1012.9
20260504194506 76 143 4.0 8.0 0.00 0.00 0.00 42 1013.1
20260504193056 75 215 3.0 6.0 0.00 0.00 0.00 45 1013.2
20260504191525 75 128 1.0 5.0 0.00 0.00 0.00 47 1013.3
20260504190015 74 161 5.0 7.0 0.00 0.00 0.00 47 1013.4
20260504184658 73 52 6.0 9.0 0.00 0.00 0.00 46 1013.5
20260504183106 73 125 2.0 5.0 0.00 0.00 0.00 52 1013.5
20260504181600 72 82 2.0 7.0 0.00 0.00 0.00 53 1013.7
20260504174551 70 63 3.0 9.0 0.00 0.00 0.00 52 1013.6
20260504173047 71 46 2.0 6.0 0.00 0.00 0.00 46 1013.6
20260504171523 70 234 1.0 5.0 0.00 0.00 0.00 48 1013.7